Bellefontaine, OH

6:59 PM EDT on May 23, 2017 (GMT -0400)
Bellefontaine

Weather History for KEDJ - February, 2014

Change the Weather History Date:

Sunday, February 16, 2014

  Actual Average (KDLZ) Record (KDLZ)
Temperature  
Mean Temperature 20 °F -  
Max Temperature 26 °F 38 °F 63 °F (1954)
Min Temperature 14 °F 18 °F -11 °F (1978)
Degree Days  
Heating Degree Days 45    
Moisture  
Dew Point 18 °F    
Average Humidity 89    
Maximum Humidity 100    
Minimum Humidity 74    
Precipitation  
Precipitation 0.00 in - - ()
Sea Level Pressure  
Sea Level Pressure 30.04 in    
Wind  
Wind Speed 8 mph (SW)    
Max Wind Speed 14 mph    
Max Gust Speed 23 mph    
Visibility 7 miles    
Events      
Averages and records for this station are not official NWS values.
T = Trace of Precipitation, MM = Missing Value Source: NWS Daily Summary

Daily Weather History Graph

Daily Weather History Graph

Search for Another Location

Airport or City:

Trip Planner

Search our weather history database for the weather conditions in past years. The results will help you decide how hot, cold, wet, or windy it might be!

Date:

Astronomy

Feb. 16, 2014 Rise Set
Actual Time 7:27 AM EST 6:11 PM EST
Civil Twilight 6:59 AM EST 6:39 PM EST
Nautical Twilight 6:27 AM EST 7:11 PM EST
Astronomical Twilight 5:56 AM EST 7:43 PM EST
Moon 8:08 PM EST (2/16) 7:56 AM EST (2/16)
Length of Visible Light 11h 40m
Length of Day
10h 44m
Full, 97% of the Moon is Illuminated
Feb 16
Full
Feb 22
Last Quarter
Mar 1
New
Mar 8
First Quarter
Mar 16
Full

Hourly Weather History & Observations

Time (EST) Temp. Windchill Dew Point Humidity Pressure Visibility Wind Dir Wind Speed Gust Speed Precip Events Conditions
12:10 AM 17.6 °F 9.3 °F 12.2 °F 79% 30.00 in 10.0 mi SE 5.8 mph - 0.00 in   Clear
12:30 AM 15.8 °F 6.1 °F 12.2 °F 86% 29.99 in 10.0 mi SE 6.9 mph - 0.00 in   Clear
12:50 AM 17.6 °F 8.2 °F 12.2 °F 79% 29.99 in 10.0 mi SE 6.9 mph - 0.00 in   Clear
1:10 AM 17.6 °F 7.3 °F 12.2 °F 79% 29.98 in 10.0 mi SE 8.1 mph - 0.00 in   Clear
1:30 AM 17.6 °F 9.3 °F 12.2 °F 79% 29.97 in 10.0 mi SE 5.8 mph - 0.00 in   Clear
1:50 AM 17.6 °F 9.3 °F 12.2 °F 79% 29.96 in 10.0 mi SE 5.8 mph - 0.00 in   Clear
2:10 AM 17.6 °F 7.3 °F 12.2 °F 79% 29.96 in 10.0 mi SE 8.1 mph - 0.00 in   Clear
2:30 AM 17.6 °F 8.2 °F 14.0 °F 86% 29.96 in 10.0 mi SE 6.9 mph - 0.00 in   Clear
2:50 AM 19.4 °F 9.5 °F 14.0 °F 80% 29.95 in 10.0 mi SE 8.1 mph - 0.00 in   Clear
3:10 AM 19.4 °F 7.9 °F 14.0 °F 80% 29.94 in 10.0 mi SSE 10.4 mph - 0.00 in   Clear
3:30 AM 19.4 °F 8.6 °F 15.8 °F 86% 29.92 in 7.0 mi SSE 9.2 mph - 0.00 in   Clear
3:50 AM 19.4 °F 8.6 °F 17.6 °F 93% 29.92 in 9.0 mi SSE 9.2 mph - 0.00 in   Mostly Cloudy
4:10 AM 19.4 °F 9.5 °F 17.6 °F 93% 29.92 in 9.0 mi SSE 8.1 mph - 0.00 in   Overcast
4:30 AM 19.4 °F 8.6 °F 17.6 °F 93% 29.92 in 10.0 mi SSE 9.2 mph - 0.00 in   Overcast
4:50 AM 19.4 °F 8.6 °F 17.6 °F 93% 29.91 in 10.0 mi SSE 9.2 mph - 0.00 in   Overcast
5:10 AM 19.4 °F 10.4 °F 17.6 °F 93% 29.91 in 10.0 mi SSE 6.9 mph - 0.00 in   Overcast
5:30 AM 19.4 °F 9.5 °F 17.6 °F 93% 29.90 in 10.0 mi SSE 8.1 mph - 0.00 in   Overcast
5:50 AM 21.2 °F 10.9 °F 19.4 °F 93% 29.90 in 10.0 mi SSE 9.2 mph - 0.00 in   Mostly Cloudy
6:10 AM 21.2 °F 11.7 °F 19.4 °F 93% 29.90 in 8.0 mi SSE 8.1 mph - 0.00 in   Mostly Cloudy
6:30 AM 21.2 °F 10.9 °F 19.4 °F 93% 29.89 in 7.0 mi South 9.2 mph - 0.00 in   Mostly Cloudy
6:50 AM 21.2 °F 11.7 °F 19.4 °F 93% 29.91 in 8.0 mi South 8.1 mph - 0.00 in   Mostly Cloudy
7:10 AM 21.2 °F 11.7 °F 19.4 °F 93% 29.90 in 8.0 mi South 8.1 mph - 0.00 in   Mostly Cloudy
7:30 AM 21.2 °F 11.7 °F 19.4 °F 93% 29.90 in 5.0 mi South 8.1 mph - 0.00 in   Mostly Cloudy
7:50 AM 21.2 °F 13.6 °F 21.2 °F 100% 29.91 in 5.0 mi South 5.8 mph - 0.00 in   Mostly Cloudy
8:10 AM 21.2 °F 12.6 °F 21.2 °F 100% 29.91 in 3.0 mi SSW 6.9 mph - 0.00 in   Overcast
8:30 AM 23.0 °F 12.4 °F 23.0 °F 100% 29.92 in 3.0 mi SW 10.4 mph - 0.00 in   Mostly Cloudy
8:50 AM 23.0 °F 12.4 °F 23.0 °F 100% 29.92 in 3.0 mi SW 10.4 mph - 0.00 in   Mostly Cloudy
9:10 AM 23.0 °F 13.9 °F 23.0 °F 100% 29.94 in 2.5 mi WSW 8.1 mph - 0.00 in   Scattered Clouds
9:30 AM 23.0 °F 13.9 °F 23.0 °F 100% 29.94 in 2.5 mi WSW 8.1 mph - 0.00 in   Partly Cloudy
9:50 AM 24.8 °F 16.1 °F 23.0 °F 93% 29.94 in 3.0 mi WSW 8.1 mph - 0.00 in   Clear
10:10 AM 24.8 °F 14.0 °F 23.0 °F 93% 29.95 in 4.0 mi West 11.5 mph - 0.00 in   Scattered Clouds
10:30 AM 24.8 °F 16.1 °F 23.0 °F 93% 29.95 in 4.0 mi West 8.1 mph - 0.00 in   Mostly Cloudy
10:50 AM 24.8 °F 15.3 °F 23.0 °F 93% 29.96 in 2.0 mi West 9.2 mph - 0.00 in   Mostly Cloudy
11:10 AM 24.8 °F 15.3 °F 23.0 °F 93% 29.97 in 2.0 mi West 9.2 mph - 0.00 in   Mostly Cloudy
11:30 AM 24.8 °F 15.3 °F 23.0 °F 93% 29.97 in 2.5 mi West 9.2 mph - 0.00 in   Scattered Clouds
11:50 AM 24.8 °F 14.6 °F 21.2 °F 86% 29.98 in 3.0 mi West 10.4 mph - 0.00 in   Scattered Clouds
12:10 PM 24.8 °F 14.6 °F 21.2 °F 86% 29.99 in 2.5 mi West 10.4 mph - 0.00 in   Scattered Clouds
12:30 PM 24.8 °F 14.6 °F 21.2 °F 86% 30.00 in 2.0 mi West 10.4 mph - 0.00 in   Overcast
12:50 PM 23.0 °F 11.1 °F 21.2 °F 93% 30.00 in 1.5 mi WNW 12.7 mph 19.6 mph 0.00 in   Overcast
1:10 PM 24.8 °F 14.6 °F 21.2 °F 86% 30.00 in 1.8 mi WNW 10.4 mph 17.3 mph 0.00 in   Overcast
1:30 PM 23.0 °F 10.6 °F 21.2 °F 93% 30.01 in 3.0 mi NNW 13.8 mph 17.3 mph 0.00 in   Mostly Cloudy
1:50 PM 23.0 °F 11.7 °F 21.2 °F 93% 30.01 in 2.5 mi NW 11.5 mph 19.6 mph 0.00 in   Mostly Cloudy
2:10 PM 24.8 °F 15.3 °F 21.2 °F 86% 30.02 in 5.0 mi WNW 9.2 mph - 0.00 in   Overcast
2:30 PM 24.8 °F 14.0 °F 19.4 °F 80% 30.03 in 5.0 mi WNW 11.5 mph 21.9 mph 0.00 in   Mostly Cloudy
2:50 PM 24.8 °F 14.0 °F 19.4 °F 80% 30.04 in 4.0 mi WNW 11.5 mph - 0.00 in   Overcast
3:10 PM 24.8 °F 14.0 °F 19.4 °F 80% 30.05 in 5.0 mi WNW 11.5 mph 19.6 mph 0.00 in   Mostly Cloudy
3:30 PM 26.6 °F 15.2 °F 19.4 °F 74% 30.06 in 8.0 mi WNW 13.8 mph 18.4 mph 0.00 in   Mostly Cloudy
3:50 PM 24.8 °F 13.4 °F 17.6 °F 74% 30.08 in 7.0 mi NW 12.7 mph 23.0 mph 0.00 in   Overcast
4:10 PM 24.8 °F 13.4 °F 19.4 °F 80% 30.09 in 5.0 mi NW 12.7 mph 19.6 mph 0.00 in   Overcast
4:30 PM 24.8 °F 14.6 °F 19.4 °F 80% 30.10 in 7.0 mi NW 10.4 mph - 0.00 in   Overcast
4:50 PM 24.8 °F 14.6 °F 17.6 °F 74% 30.11 in 9.0 mi NW 10.4 mph 17.3 mph 0.00 in   Overcast
5:10 PM 23.0 °F 11.7 °F 17.6 °F 80% 30.12 in 9.0 mi WNW 11.5 mph - 0.00 in   Overcast
5:30 PM 23.0 °F 13.9 °F 19.4 °F 86% 30.13 in 5.0 mi NW 8.1 mph - 0.00 in   Overcast
5:50 PM 23.0 °F 15.8 °F 19.4 °F 86% 30.15 in 5.0 mi NW 5.8 mph - 0.00 in   Overcast
6:10 PM 23.0 °F 15.8 °F 19.4 °F 86% 30.16 in 5.0 mi WNW 5.8 mph - 0.00 in   Overcast
6:30 PM 23.0 °F 18.4 °F 19.4 °F 86% 30.18 in 7.0 mi West 3.5 mph - 0.00 in   Overcast
6:50 PM 23.0 °F 18.4 °F 19.4 °F 86% 30.19 in 9.0 mi West 3.5 mph - 0.00 in   Mostly Cloudy
7:10 PM 23.0 °F 18.4 °F 19.4 °F 86% 30.20 in 9.0 mi NNW 3.5 mph - 0.00 in   Mostly Cloudy
7:30 PM 21.2 °F - 19.4 °F 93% 30.21 in 8.0 mi Calm Calm - 0.00 in   Mostly Cloudy
7:50 PM 23.0 °F 17.0 °F 19.4 °F 86% 30.22 in 9.0 mi NNE 4.6 mph - 0.00 in   Mostly Cloudy
8:10 PM 21.2 °F - 17.6 °F 86% 30.23 in 10.0 mi Calm Calm - 0.00 in   Scattered Clouds
8:30 PM 21.2 °F - 19.4 °F 93% 30.23 in 8.0 mi Calm Calm - 0.00 in   Scattered Clouds
8:50 PM 19.4 °F - 19.4 °F 100% 30.24 in 7.0 mi Calm Calm - 0.00 in   Mostly Cloudy
9:10 PM 19.4 °F - 17.6 °F 93% 30.25 in 8.0 mi Calm Calm - 0.00 in   Overcast
9:30 PM 15.8 °F 10.2 °F 14.0 °F 93% 30.25 in 7.0 mi ENE 3.5 mph - 0.00 in   Mostly Cloudy
9:50 PM 15.8 °F 10.2 °F 14.0 °F 93% 30.26 in 8.0 mi NE 3.5 mph - 0.00 in   Mostly Cloudy
10:10 PM 17.6 °F - 17.6 °F 100% 30.26 in 9.0 mi Calm Calm - 0.00 in   Partly Cloudy
10:30 PM 17.6 °F 12.3 °F 14.0 °F 86% 30.26 in 10.0 mi East 3.5 mph - 0.00 in   Clear
10:50 PM 14.0 °F 8.2 °F 12.2 °F 93% 30.25 in 10.0 mi East 3.5 mph - 0.00 in   Clear
11:10 PM 15.8 °F 10.2 °F 14.0 °F 93% 30.26 in 10.0 mi East 3.5 mph - 0.00 in   Clear
11:30 PM 14.0 °F - 10.4 °F 86% 30.26 in 10.0 mi Calm Calm - 0.00 in   Clear
11:50 PM 14.0 °F - 12.2 °F 93% 30.26 in 7.0 mi Calm Calm - 0.00 in   Clear